OpenBCM V1.08-5-g2f4a (Linux)

Packet Radio Mailbox

IZ3LSV

[San Dona' di P. JN]

 Login: GUEST





  
CX2SA  > KEP      04.01.20 00:31l 86 Lines 3610 Bytes #999 (0) @ ARL
BID : ARLK001
Read: GUEST
Subj: ARLK001 Keplerian data
Path: IZ3LSV<IQ5KG<I0OJJ<N6RME<CX2SA
Sent: 200103/2324Z @:CX2SA.SAL.URY.SOAM #:22245 [Salto] FBB7.00e $:ARLK001
From: CX2SA@CX2SA.SAL.URY.SOAM
To  : KEP@ARL


ZCZC SK01
QST de W1AW
Keplerian Bulletin 1  ARLK001
From ARRL Headquarters
Newington, CT  January 3, 2020
To all radio amateurs

SB KEP ARL ARLK001
ARLK001 Keplerian data

Special thanks to AMSAT-NA (AMSAT.ORG) for the following Keplerian
data.

Decode 2-line elsets with the following key:
1 AAAAAU 00  0  0 BBBBB.BBBBBBBB  .CCCCCCCC  00000-0  00000-0 0  DDDZ
2 AAAAA EEE.EEEE FFF.FFFF GGGGGGG HHH.HHHH III.IIII JJ.JJJJJJJJKKKKKZ
KEY: A-CATALOGNUM B-EPOCHTIME C-DECAY D-ELSETNUM E-INCLINATION F-RAAN
G-ECCENTRICITY H-ARGPERIGEE I-MNANOM J-MNMOTION K-ORBITNUM Z-CHECKSUM

0 AO-07
1 7530U 74089B   20003.50333056 -.00000022  00000-0  14718-3 0  9992
2 7530 101.7759 334.3381 0012153 325.0896 148.2349 12.53641484 65434
0 FO-29
1 24278U 96046B   20002.86901696 -.00000007 +00000-0 +26267-4 0  9992
2 24278 098.5645 134.6876 0351331 086.3567 277.7672 13.53095109154350
0 ISS
1 25544U 98067A   20003.71588340  .00000407  00000-0  15350-4 0  9990
2 25544  51.6450  87.2508 0005224  98.7845  36.8960 15.49532356206369
0 SO-50
1 27607U 02058C   20002.92055715 -.00000027 +00000-0 +16941-4 0  9990
2 27607 064.5538 163.5297 0067790 217.1632 142.4768 14.75599087916158
0 CO-55
1 27844U 03031E   20002.90917414 +.00000035 +00000-0 +35264-4 0  9993
2 27844 098.6835 013.1498 0009973 171.8015 188.3327 14.22213869856428
0 RS-22
1 27939U 03042A   20003.83019016  .00000067  00000-0  20700-4 0  9998
2 27939  98.0660 141.1123 0013610 152.8029 207.3892 14.66828497869731
0 RS-30
1 32953U 08025A   20003.43969046  .00000037  00000-0  19437-3 0  9990
2 32953  82.5037  21.1587 0020232  58.1791 302.1255 12.43093428527001
0 KKS-1
1 33499U 09002H   20002.83266876  .00000065  00000-0  17636-4 0  9997
2 33499  98.3323 212.7096 0008055 300.1709  59.8701 14.75492804588446
0 AO-71
1 37854U 11061E   20002.72723094  .00000353  00000-0  26049-4 0  9990
2 37854 101.7137   7.9170 0159455 197.4525 162.1170 15.06898034446810
0 AO-73
1 39444U 13066AE  20003.14341255  .00000231  00000-0  34539-4 0  9994
2 39444  97.5574  12.5952 0059487  96.1571 264.6425 14.82037413329320
0 UKUBE 1
1 40074U 14037F   20003.45558129  .00000172  00000-0  27822-4 0  9999
2 40074  98.4499 181.9407 0003414 308.5404  51.5509 14.84166125297131
0 XW-2A
1 40903U 15049E   20003.79191201  .00001297  00000-0  31848-4 0  9997
2 40903  97.3128  52.4514 0014430 138.2383 333.3256 15.42480879240930
0 XW-2F
1 40910U 15049M   20003.50095946  .00000665  00000-0  36360-4 0  9995
2 40910  97.4654   9.3658 0013601 213.5282 297.7537 15.17626281237164
0 XW-2B
1 40911U 15049N   20003.43614200  .00000274  00000-0  17721-4 0  9994
2 40911  97.4725   7.6692 0012731 224.4556 239.7644 15.16015491237014
0 IO-86
1 40931U 15052B   20002.58753715  .00000638  00000-0 -24146-6 0  9996
2 40931   5.9928  85.5229 0013528  76.7647 283.7111 14.76622055230555
0 CAS-4B
1 42759U 17034B   20003.49116316 -.00000090  00000-0  80486-5 0  9999
2 42759  43.0183 218.8265 0010496  58.9397  15.9678 15.09713177140889
0 CAS-4A
1 42761U 17034D   20003.51105836  .00000108  00000-0  20091-4 0  9994
2 42761  43.0177 218.1249 0011076  60.0419  19.3729 15.09792745140887
0 AO-91
1 43017U 17073E   20003.75343163  .00000238  00000-0  24546-4 0  9998
2 43017  97.7265 282.3541 0256365 229.9601 127.8868 14.78762168114673
0 AO-92
1 43137U 18004AC  20002.83781861 +.00000716 +00000-0 +32703-4 0  9990
2 43137 097.4666 074.9842 0007625 283.2403 076.7983 15.23800220109670

Keplerian bulletins are transmitted twice weekly from W1AW.  The
next scheduled transmission of these data will be Tuesday, January 7,
2020, at 2230z on Baudot and BPSK31.
NNNN


Read previous mail | Read next mail


 14.03.2026 16:10:10lGo back Go up